This demonstration page uses our WeatherBlox Daily Observations layout. Learn more.

Left ArrowRight Arrow

41.55636, -103.73856

Hourly Observations for July 24, 2020

Temp ( °F °C ) Dew Point ( °F °C ) Humidity (%) Winds ( mph kmh ) Pressure ( in mb ) Visibility ( mi km ) Precip ( " mm )
6:59 pm 18:59 Clear 88 31.3 43 6.2 21 21 S 9 15 29.80 1009 10 16 0.00 0.00
7:58 pm 19:58 Mostly Clear 82 27.8 55 12.6 39 39 SSE 26 43 29.80 1009 10 16 0.00 0.00
8:58 pm 20:58 Mostly Cloudy 78 25.5 56 13.1 46 46 WSW 9 15 29.85 1011 10 16 0.00 0.00
9:58 pm 21:58 Mostly Cloudy 75 24.1 57 13.8 53 53 S 13 20 29.85 1011 10 16 0.00 0.00
10:58 pm 22:58 Partly Cloudy 73 23 58 14.7 60 60 S 25 41 29.82 1010 10 16 0.00 0.00
11:58 pm 23:58 Mostly Cloudy 74 23.1 59 15.1 61 61 S 24 39 29.82 1010 10 16 0.00 0.00
12:58 am 00:58 Mostly Cloudy 71 21.8 59 14.8 65 65 S 24 39 29.83 1010 10 16 0.00 0.00
1:58 am 01:58 Mostly Cloudy 69 20.8 59 14.9 69 69 SSW 20 31 29.83 1010 10 16 0.00 0.00
2:58 am 02:58 Clear 69 20.6 58 14.5 68 68 SSW 22 35 29.82 1010 10 16 0.00 0.00
3:58 am 03:58 Mostly Cloudy 68 20.2 57 13.7 66 66 S 17 28 29.82 1010 10 16 0.00 0.00
4:58 am 04:58 Mostly Cloudy 67 19.7 57 14.1 70 70 Calm 29.83 1010 10 16 0.00 0.00
5:58 am 05:58 Mostly Cloudy 67 19.6 58 14.3 72 72 S 8 13 29.83 1010 10 16 0.00 0.00
6:58 am 06:58 Partly Cloudy 67 19.4 58 14.7 74 74 WSW 5 7 29.85 1011 10 16 0.00 0.00
7:58 am 07:58 Partly Cloudy 71 21.6 59 15 66 66 SSW 8 13 29.85 1011 10 16 0.00 0.00
8:58 am 08:58 Sunny 75 23.7 59 15.1 59 59 WSW 7 11 29.85 1011 10 16 0.00 0.00
9:58 am 09:58 Sunny 79 25.9 57 13.8 47 47 WNW 14 22 29.87 1011 10 16 0.00 0.00
10:58 am 10:58 Sunny 83 28.4 48 8.7 29 29 NW 18 30 29.86 1011 10 16 0.00 0.00
11:58 am 11:58 Sunny 84 29.1 44 6.9 25 25 NW 24 39 29.86 1011 10 16 0.00 0.00
12:58 pm 12:58 Sunny 86 29.9 47 8.3 26 26 NW 22 35 29.86 1011 10 16 0.00 0.00
1:58 pm 13:58 Sunny 87 30.6 49 9.3 27 27 NNW 20 31 29.86 1011 10 16 0.00 0.00
2:58 pm 14:58 Sunny 89 31.4 47 8.3 24 24 N 12 19 29.86 1011 10 16 0.00 0.00
3:58 pm 15:58 Sunny 87 30.7 46 7.9 24 24 WNW 12 19 29.86 1011 10 16 0.00 0.00
4:58 pm 16:58 Sunny 87 30.5 46 7.9 24 24 NNW 12 19 29.85 1011 10 16 0.00 0.00
5:58 pm 17:58 Sunny 86 30.2 46 8 25 25 N 6 9 29.85 1011 10 16 0.00 0.00

Powered by AerisWeather